Wind_Speed
2 2 2 2 2 2 2 2 2 3 3 5 5 6 7 8 9 9 9 9 9 9 9 9 9 9 9 9 9 10 10 10 10 10 10 10 10 10 9 8 8 8 8
1 1 1 1 1 2 1 2 2 2 3 4 5 6 7 8 9 10 10 10 10 9 10 10 10 10 10 11 11 11 11 11 11 11 11 11 12 12 11 10 9 9 9
1 1 1 1 1 1 1 2 2 2 3 3 5 5 6 7 8 9 10 11 10 10 10 10 11 11 11 12 12 12 12 13 12 13 13 12 13 13 12 12 12 11 11
2 1 1 0 1 1 1 2 2 2 3 4 4 5 7 8 8 9 10 10 9 9 10 10 11 11 12 12 13 13 13 13 13 13 14 14 14 14 14 14 13 12 12
2 1 0 0 1 1 2 3 3 4 4 4 5 5 6 7 9 10 9 9 10 10 10 11 11 12 12 13 14 14 14 14 14 14 14 15 15 14 15 14 14 14 14
2 2 1 1 1 2 3 4 4 5 5 6 5 6 7 8 9 10 9 10 10 11 11 11 12 12 13 14 13 13 14 15 15 15 15 15 15 16 16 16 16 16 16
2 2 2 2 2 3 4 5 5 6 7 7 8 8 9 9 10 10 10 10 10 11 11 12 13 13 14 14 14 14 14 14 15 15 16 17 18 17 16 16 17 17 17
2 3 3 3 3 4 5 5 6 6 7 8 8 8 9 10 11 11 11 11 11 11 12 12 13 14 14 14 15 15 15 15 16 16 16 17 17 17 17 18 18 19 19
3 3 3 4 5 5 5 6 6 6 7 8 8 8 9 10 11 11 11 11 11 11 11 12 13 14 15 15 15 16 16 16 16 16 17 19 18 19 19 19 20 21 20
4 4 4 5 5 5 6 7 7 7 8 9 9 9 9 10 9 10 10 11 11 12 13 14 14 14 15 16 16 16 17 17 17 18 18 19 19 19 20 20 20 21 21
4 4 4 5 6 6 6 7 8 8 9 9 10 10 10 10 10 10 10 11 12 13 14 15 15 15 16 16 16 17 17 18 18 19 20 20 20 20 21 21 22 22 22
5 5 5 6 6 7 7 8 8 8 9 9 10 10 10 10 11 11 11 11 12 14 15 15 16 16 16 17 18 18 19 20 20 21 22 22 21 21 21 21 21 21 22
6 6 7 7 8 8 8 9 9 9 10 11 11 11 11 12 12 12 13 13 14 15 15 16 18 18 18 18 19 19 20 21 21 22 22 22 23 22 23 23 23 23 23
7 8 8 9 9 9 9 10 10 10 11 12 12 13 13 13 13 14 14 15 15 16 17 18 19 19 20 20 20 20 20 21 22 22 22 23 23 23 24 24 24 23 24
9 9 10 10 10 11 11 11 11 12 12 13 13 13 14 14 15 15 16 16 17 18 18 19 20 21 21 21 21 22 22 23 23 24 23 23 23 24 24 25 25 25 25
10 11 11 12 12 13 13 12 12 12 13 13 14 14 15 16 16 16 17 18 18 19 19 20 21 21 21 22 23 23 24 23 23 24 24 24 24 24 24 24 25 25 26
12 12 13 14 14 14 13 14 14 14 14 14 15 16 16 17 17 18 19 19 20 20 20 21 22 22 21 23 24 24 24 23 24 24 24 25 24 25 25 25 25 25 25
13 14 15 15 14 14 15 15 16 16 16 16 17 17 17 18 18 19 20 20 21 20 21 21 21 21 22 22 24 24 24 24 24 24 24 24 25 26 26 26 26 25 25
14 14 15 16 16 16 16 17 17 17 17 17 18 18 18 19 20 21 21 22 22 22 21 21 21 22 22 22 23 23 23 24 24 24 24 24 24 24 25 25 25 24 23
16 16 17 17 17 18 18 18 18 18 18 19 19 19 20 20 21 21 22 22 23 23 23 22 21 22 22 22 22 22 22 23 24 24 24 24 24 24 24 23 23 22 23
18 18 18 18 18 19 19 19 20 20 20 20 20 20 21 21 22 23 24 24 24 25 24 24 24 23 23 23 22 22 23 23 23 24 24 24 24 24 23 23 22 22 22
20 20 19 19 20 21 21 22 22 22 21 21 22 22 23 23 24 24 25 25 25 25 25 25 25 25 25 23 23 24 24 24 24 24 24 24 24 23 23 23 23 23 24
21 21 21 21 21 21 22 22 23 23 23 24 24 24 25 25 25 26 25 25 25 25 25 25 26 26 25 25 24 25 25 25 25 25 24 24 24 23 23 23 23 24 24
23 22 23 22 22 22 22 23 24 25 25 25 26 26 26 26 26 26 25 25 25 25 26 26 26 25 25 26 25 25 26 26 26 26 25 24 24 24 24 24 24 24 24
25 25 26 25 25 24 25 25 26 26 26 27 27 27 27 27 28 27 26 26 26 27 27 27 27 27 27 27 27 26 26 26 26 26 26 25 25 24 24 24 24 24 24
27 27 27 27 26 26 27 28 28 28 28 28 29 29 29 29 29 28 28 27 27 28 28 28 28 28 28 27 27 27 27 27 27 27 27 27 26 26 25 25 26 26 26
Wind_Direction
170 183 192 204 221 235 250 258 246 251 263 265 253 238 232 226 231 235 241 246 250 249 253 251 252 253 252 250 248 250 253 252 252 253 255 255 260 258 256 259 258 261 264
147 174 196 215 228 236 250 261 263 264 256 256 246 240 235 235 238 242 244 249 248 248 250 249 250 250 254 253 252 254 256 258 258 256 261 259 260 259 257 257 255 257 261
116 152 173 199 221 231 244 259 272 286 275 259 253 252 251 247 248 249 253 256 254 253 255 254 253 252 253 255 253 254 258 261 260 259 260 258 259 257 256 257 256 255 259
98 100 106 170 207 247 270 265 277 283 286 282 274 264 264 262 260 258 257 255 255 259 261 260 257 256 256 257 255 254 257 260 261 264 261 260 260 258 257 258 258 259 261
73 63 54 278 250 261 268 269 270 279 283 292 289 280 279 270 265 263 258 258 258 259 263 264 263 263 262 260 259 258 258 260 261 262 263 262 261 258 258 258 258 260 262
44 14 360 331 295 284 289 286 276 276 280 286 286 287 284 275 270 263 262 267 267 264 264 263 267 269 269 265 261 263 263 260 260 260 261 262 261 261 258 257 258 260 263
18 352 352 331 314 298 295 297 283 276 278 283 282 282 280 279 272 267 269 269 268 266 267 269 270 270 269 267 265 264 264 262 259 260 260 260 259 259 259 259 260 260 262
350 341 338 324 317 317 307 300 294 284 279 282 281 280 282 278 274 272 273 269 270 270 269 271 273 272 267 264 265 263 265 265 264 261 261 263 263 261 261 262 263 264 264
346 332 319 315 313 313 311 304 297 293 290 289 286 288 289 286 280 278 274 271 270 268 269 271 272 271 268 267 267 268 269 270 268 267 266 265 267 266 265 264 265 265 266
341 335 319 309 306 306 304 300 295 293 292 289 289 289 289 287 285 283 280 277 274 273 275 274 272 274 272 268 269 268 268 269 270 270 271 270 270 271 269 267 266 267 266
328 326 321 315 313 313 309 303 297 292 292 291 291 289 288 289 287 286 283 282 280 279 278 276 274 274 272 270 267 268 269 271 272 270 272 272 271 271 272 269 267 269 268
309 310 313 313 315 314 312 312 305 299 299 296 293 291 291 291 288 285 283 284 283 281 280 278 277 278 276 274 271 271 272 273 273 272 272 272 272 271 271 271 270 270 271
305 304 306 305 307 309 310 307 303 299 296 294 292 290 289 289 288 287 285 286 286 284 281 279 278 278 279 279 277 275 275 275 274 274 274 273 274 271 271 270 270 269 270
302 303 306 306 304 302 302 301 300 298 295 293 292 291 289 289 288 287 287 288 288 287 284 281 280 279 279 279 279 278 277 276 276 277 277 276 275 272 272 271 271 271 269
297 298 302 305 305 304 302 300 300 297 294 293 294 294 294 294 292 290 289 289 288 286 285 284 282 282 281 280 280 280 279 277 277 278 279 278 277 275 273 273 271 271 271
298 296 297 300 302 301 301 301 300 299 295 292 292 292 292 293 292 293 293 293 291 289 286 284 286 287 284 281 281 281 280 278 277 277 278 278 278 277 276 274 273 272 271
301 298 295 295 295 299 301 301 301 299 297 296 294 293 292 291 291 294 295 296 295 292 289 287 286 286 286 284 282 281 281 279 278 277 278 278 278 277 277 275 275 273 271
303 302 298 295 296 298 301 300 300 298 297 295 295 295 294 293 293 294 296 296 296 294 291 289 287 286 286 286 282 281 281 281 280 280 279 279 279 279 277 276 275 274 272
302 302 301 301 297 296 297 298 300 298 296 296 295 295 295 295 295 296 296 297 297 295 293 289 288 286 285 286 285 283 282 281 282 281 281 280 280 281 279 276 274 273 271
299 301 302 302 297 294 295 297 299 299 298 298 297 297 296 295 295 295 295 295 296 295 293 291 289 287 287 286 285 284 283 284 284 283 282 282 282 281 281 278 275 273 271
297 298 301 302 299 296 295 296 297 296 296 298 299 299 299 298 297 295 294 294 294 293 292 290 289 288 288 285 283 282 282 283 284 283 283 282 281 281 281 281 279 276 274
296 295 297 298 297 295 294 294 295 295 294 295 297 297 297 297 296 296 295 294 294 292 290 288 288 287 286 285 284 283 282 281 282 282 282 282 281 280 279 279 279 278 277
295 295 295 296 296 294 295 295 295 294 293 293 294 295 295 295 296 297 296 295 294 292 289 287 286 285 284 285 284 282 281 280 280 281 282 283 282 281 279 279 280 279 278
292 293 294 295 294 294 294 294 294 294 293 293 293 293 294 293 294 294 296 296 294 292 291 288 287 286 285 285 285 285 284 282 282 280 281 283 282 280 278 279 278 278 278
290 291 293 294 294 294 295 295 294 293 292 293 292 292 292 292 293 293 294 294 293 293 291 289 287 286 285 284 284 284 283 282 282 282 280 281 280 279 279 279 279 279 280
288 289 290 291 292 294 295 295 294 292 291 291 291 290 290 290 290 290 291 292 291 291 290 289 286 285 284 283 282 282 282 281 280 280 280 280 279 278 278 278 279 280 281
Height
5880 5880 5881 5881 5882 5882 5882 5882 5882 5882 5882 5881 5881 5881 5882 5883 5885 5886 5887 5888 5889 5889 5890 5891 5891 5891 5891 5892 5892 5892 5893 5893 5894 5894 5895 5895 5896 5896 5896 5896 5896 5897 5897
5879 5880 5880 5881 5881 5881 5881 5881 5881 5882 5882 5882 5881 5882 5882 5883 5884 5885 5886 5887 5887 5888 5888 5889 5889 5889 5890 5890 5890 5890 5891 5891 5891 5892 5892 5893 5893 5894 5894 5894 5894 5895 5895
5879 5880 5880 5880 5881 5881 5881 5881 5881 5881 5882 5882 5882 5881 5882 5883 5883 5884 5884 5885 5885 5886 5886 5886 5887 5887 5888 5888 5888 5888 5889 5889 5889 5889 5890 5890 5890 5891 5891 5892 5892 5892 5893
5880 5880 5880 5880 5880 5881 5881 5881 5881 5881 5881 5882 5882 5881 5882 5882 5882 5883 5883 5883 5884 5884 5884 5885 5885 5885 5885 5886 5886 5886 5886 5886 5887 5887 5887 5887 5887 5888 5888 5889 5889 5889 5890
5880 5880 5880 5880 5880 5881 5881 5881 5881 5881 5881 5881 5881 5881 5881 5881 5881 5881 5881 5882 5882 5882 5882 5882 5883 5883 5883 5883 5883 5883 5883 5883 5884 5884 5884 5884 5884 5885 5885 5886 5886 5886 5887
5880 5880 5880 5880 5880 5880 5880 5880 5880 5880 5880 5880 5880 5880 5880 5880 5880 5879 5879 5880 5880 5880 5880 5880 5880 5880 5880 5880 5879 5880 5880 5880 5880 5880 5880 5881 5881 5881 5882 5882 5883 5883 5883
5881 5880 5880 5880 5880 5879 5879 5879 5879 5879 5879 5879 5879 5879 5879 5878 5878 5877 5877 5877 5878 5878 5878 5878 5878 5878 5877 5877 5877 5877 5876 5876 5877 5877 5877 5877 5877 5877 5878 5878 5879 5879 5879
5880 5880 5880 5880 5879 5879 5878 5878 5878 5878 5877 5877 5877 5877 5877 5877 5876 5875 5875 5875 5875 5875 5875 5875 5875 5874 5874 5874 5874 5873 5873 5873 5873 5873 5873 5873 5873 5873 5874 5874 5874 5874 5874
5880 5880 5879 5879 5879 5878 5877 5877 5876 5876 5876 5876 5875 5875 5875 5874 5874 5874 5873 5873 5872 5872 5872 5872 5871 5871 5871 5870 5870 5870 5870 5870 5869 5869 5869 5869 5869 5869 5869 5869 5869 5870 5870
5881 5880 5879 5878 5878 5877 5876 5875 5875 5874 5874 5874 5873 5873 5873 5872 5872 5871 5871 5870 5869 5869 5869 5868 5868 5867 5867 5866 5866 5866 5865 5865 5865 5865 5865 5864 5864 5864 5864 5864 5864 5864 5864
5880 5879 5878 5878 5877 5876 5875 5874 5873 5873 5873 5872 5871 5871 5870 5870 5869 5869 5868 5868 5867 5866 5865 5865 5864 5864 5863 5863 5862 5862 5861 5861 5861 5860 5860 5860 5859 5859 5859 5859 5859 5858 5858
5880 5878 5877 5876 5875 5874 5873 5872 5872 5871 5871 5870 5869 5869 5868 5868 5867 5866 5866 5865 5864 5863 5862 5861 5861 5860 5859 5859 5858 5858 5857 5857 5856 5856 5855 5855 5854 5854 5854 5854 5853 5853 5853
5879 5877 5876 5875 5874 5873 5872 5871 5870 5869 5868 5868 5867 5866 5865 5865 5864 5863 5863 5862 5861 5860 5859 5858 5857 5856 5855 5855 5854 5853 5853 5852 5851 5850 5850 5849 5849 5849 5848 5848 5848 5848 5847
5877 5876 5875 5874 5873 5871 5870 5869 5868 5867 5866 5865 5864 5863 5862 5862 5861 5860 5859 5858 5857 5856 5855 5854 5852 5851 5851 5850 5849 5848 5847 5846 5846 5845 5844 5844 5843 5843 5842 5842 5842 5841 5841
5875 5874 5873 5872 5870 5869 5868 5866 5865 5864 5863 5862 5861 5861 5860 5858 5857 5856 5855 5854 5854 5852 5851 5849 5848 5847 5846 5845 5844 5843 5842 5841 5840 5839 5838 5838 5837 5836 5836 5836 5835 5835 5835
5873 5872 5871 5869 5868 5866 5865 5864 5862 5861 5860 5859 5858 5857 5856 5855 5854 5852 5851 5850 5849 5848 5846 5845 5843 5842 5841 5839 5838 5837 5836 5835 5834 5833 5832 5832 5831 5830 5829 5829 5829 5828 5828
5870 5869 5868 5866 5865 5863 5862 5861 5859 5858 5857 5855 5854 5853 5852 5851 5849 5848 5847 5846 5844 5843 5842 5840 5838 5837 5836 5834 5833 5831 5830 5829 5828 5827 5826 5825 5824 5823 5823 5822 5822 5821 5821
5867 5865 5864 5863 5861 5860 5858 5857 5855 5854 5853 5851 5850 5849 5847 5846 5845 5843 5842 5840 5839 5837 5836 5835 5833 5832 5830 5828 5827 5825 5824 5823 5822 5821 5820 5819 5818 5817 5816 5815 5815 5814 5814
5863 5862 5860 5859 5857 5856 5854 5853 5851 5849 5848 5847 5845 5844 5843 5841 5840 5838 5837 5835 5833 5832 5830 5829 5827 5826 5824 5823 5821 5819 5818 5817 5815 5814 5813 5812 5811 5810 5809 5808 5808 5808 5807
5860 5858 5856 5854 5853 5851 5850 5848 5847 5845 5844 5842 5840 5839 5837 5836 5834 5833 5831 5829 5827 5826 5824 5822 5821 5819 5818 5816 5815 5813 5812 5811 5809 5808 5806 5805 5804 5803 5802 5802 5801 5801 5801
5856 5854 5852 5850 5848 5847 5845 5844 5842 5840 5839 5837 5835 5834 5832 5830 5828 5827 5825 5823 5821 5819 5818 5816 5814 5813 5811 5810 5809 5807 5806 5804 5803 5802 5800 5799 5798 5797 5796 5795 5795 5794 5794
5851 5850 5848 5846 5844 5842 5840 5839 5837 5835 5833 5832 5830 5828 5826 5825 5823 5821 5819 5817 5815 5813 5811 5809 5808 5806 5805 5803 5802 5801 5799 5798 5797 5796 5794 5793 5791 5791 5790 5789 5788 5788 5787
5846 5844 5842 5840 5838 5836 5834 5833 5831 5829 5827 5826 5824 5822 5820 5818 5816 5814 5812 5810 5808 5806 5804 5803 5801 5800 5798 5796 5795 5794 5792 5791 5790 5788 5787 5786 5785 5784 5783 5782 5782 5781 5781
5840 5838 5836 5834 5832 5830 5828 5826 5825 5823 5821 5819 5817 5815 5813 5811 5809 5807 5805 5803 5801 5799 5797 5795 5794 5792 5791 5789 5787 5786 5784 5783 5782 5781 5780 5779 5778 5777 5776 5776 5775 5774 5774
5834 5832 5830 5828 5826 5823 5822 5820 5818 5816 5814 5812 5810 5808 5806 5804 5802 5799 5798 5796 5794 5792 5789 5787 5786 5784 5783 5781 5779 5778 5777 5775 5775 5774 5773 5772 5771 5770 5770 5769 5768 5768 5767
5827 5825 5823 5821 5819 5817 5815 5812 5810 5808 5806 5804 5802 5800 5798 5796 5794 5791 5790 5788 5786 5784 5782 5780 5778 5776 5774 5773 5771 5770 5769 5768 5767 5766 5765 5765 5764 5763 5763 5762 5761 5760 5760